This is the latest recevied weather packets stored in our database for station/object SP1BMW-13. If no packets are shown the sender has not sent any weather packets the latest 10 day(s).
| Time | Temp. | Humidity | Pressure | Rain* | Wind** | Luminosity | Snow |
|---|---|---|---|---|---|---|---|
| 1788065920 | 18.89° C | 71% | 1008.5 hPa | 0 mm | 0 m/s | 27 W/m² | - |
| 1788065857 | 18.89° C | 71% | 1008.6 hPa | 0 mm | 0.45 m/s, 42° | 24 W/m² | - |
| 1788065797 | 18.89° C | 71% | 1008.4 hPa | 0 mm | 0 m/s | 23 W/m² | - |
| 1788065737 | 18.89° C | 71% | 1008.7 hPa | 0 mm | 0 m/s | 21 W/m² | - |
| 1788065677 | 18.89° C | 70% | 1008.3 hPa | 0 mm | 0 m/s | 18 W/m² | - |
| 1788065617 | 18.89° C | 70% | 1008.5 hPa | 0 mm | 0 m/s | 16 W/m² | - |
| 1788065557 | 18.89° C | 70% | 1008.6 hPa | 0 mm | 0 m/s | 15 W/m² | - |
| 1788065499 | 18.33° C | 70% | 1008.4 hPa | 0 mm | 0.45 m/s, 42° | 14 W/m² | - |
| 1788065437 | 18.33° C | 70% | 1008.5 hPa | 0 mm | 0.89 m/s, 40° | 14 W/m² | - |
| 1788065378 | 18.33° C | 70% | 1008.4 hPa | 0 mm | 0 m/s | 13 W/m² | - |
| 1788065320 | 18.33° C | 71% | 1008.5 hPa | 0 mm | 0 m/s | 13 W/m² | - |
| 1788065257 | 18.33° C | 70% | 1008.6 hPa | 0 mm | 0 m/s | 12 W/m² | - |
| 1788065197 | 18.33° C | 71% | 1008.6 hPa | 0 mm | 0 m/s | 12 W/m² | - |
| 1788065137 | 18.33° C | 70% | 1008.5 hPa | 0 mm | 0.45 m/s, 31° | 11 W/m² | - |
| 1788065077 | 18.33° C | 70% | 1008.4 hPa | 0 mm | 0.89 m/s, 133° | 12 W/m² | - |
| 1788065017 | 18.33° C | 70% | 1008.4 hPa | 0 mm | 0 m/s | 13 W/m² | - |
| 1788064957 | 18.33° C | 71% | 1008.6 hPa | 0 mm | 0.45 m/s, 55° | 14 W/m² | - |
| 1788064897 | 18.33° C | 70% | 1008.6 hPa | 0 mm | 0.45 m/s, 134° | 15 W/m² | - |
| 1788064837 | 18.33° C | 71% | 1008.6 hPa | 0 mm | 0.45 m/s, 280° | 16 W/m² | - |
| 1788064777 | 18.33° C | 70% | 1008.7 hPa | 0 mm | 0.45 m/s, 344° | 15 W/m² | - |
| 1788064717 | 18.33° C | 70% | 1008.6 hPa | 0 mm | 0 m/s | 15 W/m² | - |
| 1788064657 | 18.33° C | 70% | 1008.4 hPa | 0 mm | 0 m/s | 15 W/m² | - |
| 1788064596 | 18.33° C | 70% | 1008.6 hPa | 0 mm | 0 m/s | 14 W/m² | - |
| 1788064536 | 18.33° C | 70% | 1008.6 hPa | 0 mm | 0.45 m/s, 26° | 14 W/m² | - |
| 1788064477 | 18.33° C | 69% | 1008.7 hPa | 0 mm | 0.45 m/s, 355° | 14 W/m² | - |
* Rain latest hour (hover to see other rain measurements)
** Current wind speed in m/s (hover to see current wind gust speed)